Regional Weather Roundup
Issued by NWS Bismarck, ND

Home | Current Version | Previous Version | Text Only | Print | Product List | Glossary On
Versions: 1 2 3 4 5 6 7 8 9 10 11 12 13 14 15 16 17 18 19 20 21 22 23 24 25 26 27 28 29 30 31 32 33 34 35 36 37 38 39 40 41 42 43 44 45 46 47 48 49 50
078
ASUS43 KBIS 181702
RWRBIS

NWR BROADCAST TEXT
NATIONAL WEATHER SERVICE BISMARCK ND
1200 PM CDT WED OCT 18 2017

NOTE: "FAIR" INDICATES FEW OR NO CLOUDS BELOW 12,000 FEET WITH NO
SIGNIFICANT WEATHER AND/OR OBSTRUCTIONS TO VISIBILITY.


CITY           SKY/WX    TMP DP  RH WIND       PRES   REMARKS
WILLISTON      MOSUNNY   51  20  29 NW22G36   29.97R
MINOT          SUNNY     53  17  24 W31G40    29.87R
MINOT AFB      SUNNY     52  18  25 W26G44    29.85R
BISMARCK       CLOUDY    55  22  27 NW13G26   29.99R
DICKINSON      SUNNY     52  23  32 W17       30.00R
GARRISON         N/A     52  16  24 NW25G36   29.93R
HETTINGER ARPT SUNNY     52  21  29 NW14      30.06R
JAMESTOWN      CLOUDY    57  19  22 NW25G36   29.89R
CARRINGTON     FAIR      55  14  19 W25G38    29.89R
LINTON           N/A     55  23  28 NW21      30.00R
RUGBY          FAIR      52  16  24 W33G44    29.81R
STANLEY        FAIR      50  18  27 W23G38    29.93R
TIOGA          FAIR      48  18  29 W29G38    29.92R
WATFORD CITY   FAIR      50  19  29 NW17G28   29.97R
$$

CITY           SKY/WX    TMP DP  RH WIND       PRES   REMARKS
GRAND FORKS    MOSUNNY   59  23  25 W23G33    29.78R
GRAND FORKS AF SUNNY     58  20  22 W28G36    29.78R
DEVILS LAKE    SUNNY     53  21  28 W30G38    29.80S
FARGO          CLOUDY    56  26  31 W17G26    29.87R
CANDO          FAIR      54  16  22 W31G44    29.79R
CAVALIER       FAIR      57  19  23 W24G38    29.70R
GRAFTON        FAIR      55  25  30 W28G37    29.76R
GWINNER        SUNNY     55  27  33 NW12      29.92R
LANGDON        FAIR      54  19  26 W39G47    29.70S
ROLLA          FAIR      52  14  22 W31G46    29.74R
WALHALLA       FAIR     N/A N/A N/A W15G33    29.68R
$$

CITY           SKY/WX    TMP DP  RH WIND       PRES   REMARKS
ABERDEEN       MOSUNNY   60  21  22 NW23G31   29.96R
MOBRIDGE       CLOUDY    56  24  29 N15G24    29.98R
BUFFALO          N/A     53  23  31 W10       30.02R
RAPID CITY     SUNNY     58  23  26 N13       30.11S
GLASGOW        SUNNY     51  27  39 W9        29.98F
SIDNEY         SUNNY     52  23  32 W17G23    30.00S
WOLF POINT     MOSUNNY   53  23  31 W13       30.00F
GLENDIVE       SUNNY     52  23  32 W12       30.04S
MILES CITY     SUNNY     52  25  35 S7        30.06S
BAKER          SUNNY     51  24  34 NW9       30.06R
$$

CITY           SKY/WX    TMP DP  RH WIND       PRES   REMARKS
BILLINGS       MOSUNNY   52  27  38 E13       30.03F
GREAT FALLS    CLOUDY    54  31  41 SW23G32   29.94F
$$





USA.gov is the U.S. government's official web portal to all federal, state and local government web resources and services.